Location: Aragüita
(10.0436°N, 67.8028°W)
Time: 13:47:29
(UTC+00:00)

Longmarch 3A Rocket - Pass Details

Date: 14 April 2024
Orbit: 243 x 19745 km, 27.3° (Epoch: 27 May)

Event Time Altitude Azimuth Distance (km) Brightness Sun altitude
Rises 00:04:39 0° 299° (WNW) 5,756 8.4 -20.8°
Reaches altitude 10° 00:10:38 10° 307° (NW) 2,968 6.5 -22.2°
Enters shadow 00:15:26 31° 1° (N) 877 2.9 -23.4°
